Hourly Weather Ruhcha 2

Today, 19 May, Wednesday

Time Temperature Precipitation Wind Pressure Humidity
00:00 +10°C° 0 mm 5 mps 739 mmHg 95%
01:00 +10°C° 0 mm 5 mps 739 mmHg 95%
02:00 +9°C° 0 mm 5 mps 739 mmHg 94%
03:00 +9°C° 0 mm 5 mps 740 mmHg 94%
04:00 +8°C° 0 mm 5 mps 740 mmHg 94%
05:00 +8°C° 0 mm 5 mps 740 mmHg 94%
06:00 +9°C° 0 mm 5 mps 740 mmHg 90%
07:00 +10°C° 0 mm 5 mps 741 mmHg 86%
08:00 +10°C° 0 mm 6 mps 741 mmHg 82%
09:00 +13°C° 0 mm 6 mps 741 mmHg 77%
10:00 +14°C° 0 mm 6 mps 742 mmHg 71%
11:00 +15°C° 0 mm 6 mps 742 mmHg 65%
12:00 +15°C° 0 mm 6 mps 742 mmHg 65%
13:00 +15°C° 0 mm 6 mps 742 mmHg 65%
14:00 +16°C° 0 mm 6 mps 743 mmHg 65%
15:00 +15°C° 0 mm 5 mps 743 mmHg 67%
16:00 +15°C° 0 mm 5 mps 743 mmHg 70%
17:00 +15°C° 0 mm 4 mps 743 mmHg 72%
18:00 +13°C° 0 mm 3 mps 744 mmHg 76%
19:00 +13°C° 0 mm 2 mps 744 mmHg 81%
20:00 +12°C° 0 mm 1 mps 744 mmHg 86%
21:00 +12°C° 0 mm 2 mps 744 mmHg 88%
22:00 +12°C° 0 mm 2 mps 744 mmHg 90%
23:00 +10°C° 0 mm 3 mps 744 mmHg 92%

Tomorrow, 20 May, Thursday

Time Temperature Precipitation Wind Pressure Humidity
00:00 +10°C° 0 mm 3 mps 744 mmHg 93%
01:00 +9°C° 0 mm 3 mps 744 mmHg 95%
02:00 +9°C° 0 mm 3 mps 744 mmHg 96%
03:00 +9°C° 0 mm 3 mps 744 mmHg 96%
04:00 +8°C° 0 mm 3 mps 745 mmHg 97%
05:00 +8°C° 0 mm 3 mps 745 mmHg 97%
06:00 +9°C° 0 mm 3 mps 745 mmHg 93%
07:00 +10°C° 0 mm 4 mps 745 mmHg 90%
08:00 +11°C° 0 mm 4 mps 745 mmHg 86%
09:00 +12°C° 0 mm 4 mps 745 mmHg 82%
10:00 +13°C° 0 mm 4 mps 746 mmHg 78%
11:00 +14°C° 0 mm 5 mps 746 mmHg 74%
12:00 +15°C° 0.1 mm 5 mps 746 mmHg 68%
13:00 +16°C° 0.1 mm 5 mps 746 mmHg 62%
14:00 +17°C° 0.1 mm 5 mps 746 mmHg 56%
15:00 +17°C° 0.1 mm 4 mps 746 mmHg 59%
16:00 +17°C° 0.1 mm 4 mps 746 mmHg 63%
17:00 +17°C° 0.1 mm 4 mps 746 mmHg 67%
18:00 +14°C° 0 mm 4 mps 747 mmHg 70%
19:00 +13°C° 0 mm 3 mps 747 mmHg 74%
20:00 +13°C° 0 mm 2 mps 747 mmHg 78%
21:00 +12°C° 0 mm 3 mps 747 mmHg 78%
22:00 +12°C° 0 mm 3 mps 748 mmHg 78%
23:00 +11°C° 0 mm 3 mps 748 mmHg 79%

Day after tomorrow, 21 May, Friday

Time Temperature Precipitation Wind Pressure Humidity
00:00 +10°C° 0 mm 3 mps 748 mmHg 83%
01:00 +9°C° 0 mm 3 mps 749 mmHg 86%
02:00 +8°C° 0 mm 2 mps 749 mmHg 90%
03:00 +7°C° 0 mm 2 mps 749 mmHg 89%
04:00 +7°C° 0 mm 2 mps 750 mmHg 89%
05:00 +6°C° 0 mm 2 mps 750 mmHg 88%
06:00 +8°C° 0 mm 2 mps 750 mmHg 80%
07:00 +10°C° 0 mm 2 mps 751 mmHg 72%
08:00 +13°C° 0 mm 2 mps 751 mmHg 65%
09:00 +14°C° 0 mm 2 mps 751 mmHg 61%
10:00 +15°C° 0 mm 2 mps 751 mmHg 57%
11:00 +18°C° 0 mm 1 mps 751 mmHg 54%
12:00 +18°C° 0 mm 1 mps 751 mmHg 52%
13:00 +19°C° 0 mm 1 mps 751 mmHg 51%
14:00 +20°C° 0 mm 1 mps 751 mmHg 50%
15:00 +19°C° 0 mm 1 mps 750 mmHg 51%
16:00 +19°C° 0 mm 1 mps 750 mmHg 53%
17:00 +19°C° 0 mm 1 mps 750 mmHg 55%
18:00 +18°C° 0 mm 1 mps 750 mmHg 58%
19:00 +16°C° 0 mm 1 mps 750 mmHg 62%
20:00 +15°C° 0 mm 1 mps 750 mmHg 65%
21:00 +14°C° 0 mm 1 mps 750 mmHg 67%
22:00 +13°C° 0 mm 2 mps 750 mmHg 70%
23:00 +12°C° 0 mm 2 mps 750 mmHg 72%

22 May, Saturday

Time Temperature Precipitation Wind Pressure Humidity
00:00 +10°C° 0 mm 2 mps 750 mmHg 73%
01:00 +10°C° 0 mm 3 mps 750 mmHg 75%
02:00 +9°C° 0 mm 3 mps 750 mmHg 77%
03:00 +9°C° 0 mm 3 mps 750 mmHg 78%
04:00 +9°C° 0 mm 3 mps 749 mmHg 80%
05:00 +9°C° 0 mm 3 mps 749 mmHg 82%
06:00 +11°C° 0 mm 3 mps 749 mmHg 77%
07:00 +12°C° 0 mm 3 mps 749 mmHg 73%
08:00 +14°C° 0 mm 4 mps 749 mmHg 69%
09:00 +17°C° 0 mm 4 mps 749 mmHg 64%
10:00 +18°C° 0 mm 4 mps 749 mmHg 59%
11:00 +20°C° 0 mm 4 mps 749 mmHg 54%
12:00 +20°C° 0 mm 5 mps 749 mmHg 53%
13:00 +20°C° 0 mm 5 mps 748 mmHg 52%
14:00 +21°C° 0 mm 5 mps 748 mmHg 51%
15:00 +20°C° 0 mm 5 mps 748 mmHg 55%
16:00 +20°C° 0 mm 5 mps 747 mmHg 59%
17:00 +19°C° 0 mm 4 mps 747 mmHg 63%
18:00 +18°C° 0 mm 4 mps 746 mmHg 67%
19:00 +17°C° 0 mm 3 mps 746 mmHg 72%
20:00 +15°C° 0 mm 2 mps 746 mmHg 76%
21:00 +14°C° 0.2 mm 3 mps 746 mmHg 81%
22:00 +13°C° 0.2 mm 3 mps 745 mmHg 86%
23:00 +12°C° 0.2 mm 3 mps 745 mmHg 91%

23 May, Sunday

Time Temperature Precipitation Wind Pressure Humidity
00:00 +12°C° 0.3 mm 3 mps 745 mmHg 93%
01:00 +13°C° 0.3 mm 2 mps 744 mmHg 94%
02:00 +13°C° 0.3 mm 2 mps 744 mmHg 96%
03:00 +13°C° 1.1 mm 2 mps 743 mmHg 97%
04:00 +13°C° 1.1 mm 2 mps 743 mmHg 97%
05:00 +13°C° 1.1 mm 2 mps 742 mmHg 98%
06:00 +12°C° 1.1 mm 3 mps 742 mmHg 97%
07:00 +12°C° 1.1 mm 5 mps 742 mmHg 95%
08:00 +11°C° 1.1 mm 6 mps 741 mmHg 93%
09:00 +13°C° 0.3 mm 6 mps 742 mmHg 88%
10:00 +12°C° 0.3 mm 7 mps 743 mmHg 83%
11:00 +12°C° 0.3 mm 7 mps 743 mmHg 77%
12:00 +12°C° 0.6 mm 7 mps 744 mmHg 78%
13:00 +14°C° 0.6 mm 7 mps 744 mmHg 78%
14:00 +14°C° 0.6 mm 7 mps 744 mmHg 78%
15:00 +14°C° 0.5 mm 7 mps 745 mmHg 79%
16:00 +14°C° 0.5 mm 7 mps 745 mmHg 79%
17:00 +14°C° 0.5 mm 6 mps 745 mmHg 79%
18:00 +13°C° 0.2 mm 6 mps 746 mmHg 82%
19:00 +12°C° 0.2 mm 5 mps 746 mmHg 84%
20:00 +9°C° 0.2 mm 5 mps 747 mmHg 87%
21:00 +9°C° 0 mm 5 mps 747 mmHg 89%
22:00 +8°C° 0 mm 5 mps 748 mmHg 90%
23:00 +7°C° 0 mm 4 mps 748 mmHg 92%

24 May, Monday

Time Temperature Precipitation Wind Pressure Humidity
00:00 +7°C° 0 mm 4 mps 749 mmHg 92%
01:00 +7°C° 0 mm 4 mps 749 mmHg 91%
02:00 +6°C° 0 mm 4 mps 750 mmHg 90%
03:00 +6°C° 0 mm 4 mps 750 mmHg 90%
04:00 +5°C° 0 mm 4 mps 751 mmHg 90%
05:00 +5°C° 0 mm 4 mps 751 mmHg 90%
06:00 +6°C° 0 mm 4 mps 752 mmHg 83%
07:00 +8°C° 0 mm 4 mps 752 mmHg 76%
08:00 +11°C° 0 mm 4 mps 753 mmHg 69%
09:00 +12°C° 0 mm 5 mps 753 mmHg 64%
10:00 +13°C° 0 mm 5 mps 753 mmHg 58%
11:00 +15°C° 0 mm 5 mps 753 mmHg 52%
12:00 +16°C° 0 mm 5 mps 753 mmHg 51%
13:00 +16°C° 0 mm 5 mps 753 mmHg 50%
14:00 +17°C° 0 mm 6 mps 753 mmHg 49%
15:00 +17°C° 0 mm 5 mps 753 mmHg 54%
16:00 +16°C° 0 mm 5 mps 753 mmHg 60%
17:00 +17°C° 0 mm 4 mps 753 mmHg 65%
18:00 +15°C° 0 mm 4 mps 753 mmHg 70%
19:00 +14°C° 0 mm 3 mps 753 mmHg 75%
20:00 +13°C° 0 mm 3 mps 753 mmHg 80%
21:00 +12°C° 0 mm 3 mps 753 mmHg 82%
22:00 +12°C° 0 mm 3 mps 753 mmHg 84%
23:00 +11°C° 0 mm 3 mps 753 mmHg 86%
Show more